Wind_Speed
7 7 7 9 11 11 12 13 13 12 12 13 13 13 15 13 7 6 5 3 3 4 7 8 5 3 5 7 9 12 14 15 14 15 18 16 14 13 9 10 11 11 11 9 9 9 8 7 6 6 6 6 7 8 8 9 10 10 10 11 12 12 13 13 13 13 14 16 17 19 19 17 15 13 12 12 12 12 12 12 12 11 11 11 11 11
8 8 9 11 12 13 13 14 14 14 15 15 15 15 15 10 6 7 5 5 4 5 8 10 8 5 6 8 9 11 13 15 15 15 18 16 13 11 9 10 10 9 10 9 8 8 7 7 7 7 6 6 7 8 9 9 10 11 11 11 12 13 13 13 13 13 14 15 17 18 19 17 16 15 14 13 13 13 12 13 13 12 12 12 12 12
9 9 10 12 13 13 14 15 15 15 16 16 16 15 14 9 7 7 6 5 6 7 10 12 11 8 7 9 10 10 12 15 16 16 17 15 13 11 9 11 10 8 9 10 9 8 7 7 8 8 8 8 8 9 9 10 10 11 12 12 13 13 14 14 14 14 14 15 16 17 18 18 17 16 15 14 13 13 13 13 13 13 12 12 12 13
10 10 10 11 12 13 13 14 15 15 16 16 14 13 12 9 6 6 6 6 7 9 10 12 13 9 8 11 12 12 13 15 15 16 17 14 12 11 9 11 12 9 9 11 11 10 8 8 9 9 9 10 10 10 11 11 12 12 13 13 13 14 14 15 15 16 15 15 16 17 18 18 18 17 16 15 14 13 13 14 14 13 13 13 13 13
10 10 10 11 11 12 12 13 14 13 14 14 12 12 12 8 6 7 8 7 7 8 10 11 10 9 11 13 15 14 15 16 16 16 15 13 11 10 10 12 14 13 10 11 13 12 10 9 11 12 12 11 10 11 11 12 13 14 15 15 15 15 15 16 16 17 16 16 16 17 19 19 19 19 18 17 15 13 13 14 14 14 13 14 14 14
10 9 10 10 10 12 11 13 13 10 11 12 13 14 12 8 7 9 11 10 8 7 9 9 9 11 14 15 16 15 15 16 15 15 14 12 10 10 11 12 14 15 12 11 13 14 12 11 12 14 13 11 10 10 11 13 14 15 16 16 16 16 16 17 18 19 18 17 17 18 19 19 20 20 19 17 15 14 13 13 14 14 14 14 14 15
11 9 9 9 9 10 10 11 10 8 10 13 15 15 12 9 9 10 12 14 12 9 7 9 10 11 13 15 15 14 15 13 11 12 12 10 10 10 11 12 13 13 11 10 13 14 13 11 12 13 11 10 10 10 11 12 13 15 16 16 17 17 17 18 19 21 20 19 18 18 19 20 20 20 19 18 16 14 13 13 14 15 14 14 14 15
13 11 10 10 9 8 9 10 11 10 11 14 16 14 11 9 11 12 13 14 14 9 5 8 10 11 12 13 12 12 15 12 9 11 10 8 10 12 12 12 12 10 9 9 11 13 14 12 10 10 9 10 10 10 11 12 14 15 17 18 19 19 19 19 20 21 22 21 19 18 18 20 20 19 19 19 18 16 14 14 15 16 16 15 15 15
15 13 12 10 8 7 8 10 12 12 12 14 14 11 9 9 11 13 12 11 10 6 3 6 8 10 12 11 10 12 15 13 11 13 10 7 10 11 11 12 11 9 8 9 10 12 12 11 9 8 8 10 10 11 13 14 15 17 19 20 20 20 21 22 21 20 21 20 20 19 18 19 19 19 20 20 19 18 16 14 16 17 17 16 15 16
14 13 11 11 10 9 9 10 10 11 12 11 9 8 8 5 6 9 8 7 6 3 2 6 8 8 9 10 10 12 14 14 14 13 9 6 9 10 10 10 10 8 8 9 10 10 11 10 8 7 8 9 11 13 14 15 16 18 20 21 20 20 21 21 20 19 19 20 20 19 18 18 19 19 21 21 20 20 17 15 16 17 18 17 16 17
13 12 12 11 11 10 9 9 8 7 8 6 6 7 6 3 5 6 6 5 3 1 3 7 8 7 7 9 10 11 12 15 17 12 8 7 9 10 10 9 10 9 10 10 9 9 10 11 9 8 8 10 13 15 16 16 17 19 20 21 20 18 19 16 16 16 17 19 20 19 18 18 19 20 21 22 22 21 19 16 16 17 18 18 17 18
13 12 11 10 8 6 7 8 7 6 6 5 6 7 8 7 8 8 7 6 5 3 5 7 8 7 7 9 10 10 12 16 16 11 9 10 10 11 11 9 9 9 11 10 9 9 11 12 11 9 10 12 14 16 17 17 17 18 19 19 19 17 16 12 11 14 16 19 18 18 18 19 19 20 21 23 23 23 20 17 17 18 19 19 18 18
13 11 10 9 7 4 4 6 6 6 7 8 8 9 10 11 11 10 9 8 7 7 7 7 7 7 8 9 9 9 12 15 16 12 10 10 11 12 12 9 8 9 11 10 9 11 12 12 12 10 11 12 14 16 17 18 17 17 17 18 17 15 13 12 11 12 15 16 17 18 19 19 19 19 21 23 24 24 21 18 17 18 19 19 19 19
12 11 10 9 7 6 6 7 7 8 11 12 11 10 9 11 12 10 9 9 8 8 8 7 8 8 9 9 9 11 13 15 16 13 11 11 12 12 11 10 9 9 11 10 10 12 12 13 12 11 12 13 15 16 17 18 17 17 16 16 16 15 12 11 11 12 13 13 14 16 17 17 17 17 19 22 24 24 22 20 18 18 19 20 20 19
12 12 11 10 9 8 8 9 9 10 11 13 12 11 10 12 13 9 7 9 9 7 6 7 8 9 9 9 10 12 13 16 17 14 13 14 14 14 12 11 11 12 12 12 12 12 12 13 12 11 13 14 15 16 16 16 17 17 17 15 15 14 12 11 10 10 11 12 13 14 16 17 17 16 17 20 23 24 23 21 20 20 20 21 21 21
12 12 11 11 11 10 9 9 10 10 12 14 13 13 13 12 12 10 8 8 8 7 7 8 9 9 9 9 10 12 14 16 17 15 15 15 16 16 13 12 13 13 13 13 12 11 11 12 11 12 14 15 16 15 14 14 15 17 17 16 14 13 12 11 11 10 10 12 14 15 17 18 19 19 18 19 22 24 23 22 21 21 21 21 22 22
13 12 12 12 12 12 11 10 10 11 13 15 15 15 17 14 11 11 10 9 8 9 10 9 8 8 8 8 9 12 15 17 16 15 15 15 16 17 15 14 14 13 12 12 13 12 12 11 12 13 15 17 16 13 11 12 14 16 18 16 14 13 12 12 11 11 11 12 14 17 19 21 21 21 20 20 22 23 23 22 22 22 22 22 22 22
12 13 13 13 13 13 13 12 11 11 12 14 17 18 18 14 11 12 12 10 9 11 10 9 8 8 8 8 11 14 16 15 15 15 15 16 17 17 17 17 15 13 12 12 14 15 15 14 14 14 15 18 16 10 8 11 13 16 18 17 15 13 11 11 11 11 11 12 13 15 18 21 21 20 21 21 22 23 22 22 22 23 24 24 23 23
13 14 13 14 15 14 14 15 13 12 13 14 17 19 17 14 13 14 14 13 13 12 11 10 10 9 9 11 15 16 16 15 15 15 16 18 19 19 19 18 17 15 14 13 14 15 17 16 15 14 15 18 15 7 7 10 12 15 17 17 15 14 12 11 11 11 10 11 11 11 15 19 20 19 20 21 22 22 23 23 23 24 25 25 24 24
13 15 13 12 14 15 15 17 16 15 15 14 15 17 16 15 15 15 15 16 15 14 14 14 14 13 14 16 18 18 17 15 15 17 18 20 21 20 19 19 18 18 16 14 12 13 17 18 16 14 15 17 13 6 6 10 12 13 15 15 15 14 12 11 11 11 10 9 8 8 11 16 18 19 20 20 21 22 23 23 24 25 26 25 25 25
10 13 14 11 13 16 17 18 19 18 17 14 13 15 16 17 17 16 16 17 16 15 16 17 17 17 17 18 19 19 18 18 18 20 21 22 21 19 18 18 19 18 17 14 11 12 15 17 16 14 14 15 11 6 7 10 11 12 13 13 13 13 12 11 11 10 9 8 7 6 10 14 17 18 19 19 20 21 23 24 26 26 24 24 25 27
7 8 12 12 12 16 19 19 20 20 19 17 15 15 17 18 19 19 18 19 19 19 19 20 19 18 18 19 19 20 20 21 22 23 23 23 21 19 19 19 18 18 17 14 11 12 14 16 15 14 14 14 11 8 8 10 11 12 12 12 12 12 11 10 10 10 9 7 6 6 8 12 15 17 18 18 19 20 23 26 26 24 22 23 26 28
6 5 8 11 12 16 21 21 21 22 21 20 18 17 18 19 20 20 19 20 21 21 22 22 21 20 20 21 21 21 22 23 25 25 24 23 22 21 21 20 19 18 18 15 11 12 14 15 14 15 15 15 13 11 10 10 11 12 12 11 12 12 10 10 10 10 9 8 6 6 6 8 12 15 16 18 19 20 24 26 24 23 24 26 27 28
7 8 8 10 12 16 21 24 24 24 24 23 22 21 21 21 22 22 21 22 22 22 24 24 23 23 24 24 23 24 25 27 27 27 25 25 24 23 23 23 23 21 19 16 12 12 14 14 14 14 15 16 15 14 13 13 12 13 13 11 11 11 10 9 9 10 10 8 7 6 6 7 9 12 14 16 18 20 24 25 22 22 25 26 26 26
10 11 11 11 12 15 20 25 27 27 26 25 24 24 24 24 25 25 25 26 25 24 26 27 26 26 27 26 26 27 29 30 30 30 29 28 26 25 24 25 27 27 22 18 14 13 14 15 15 15 15 16 17 16 15 14 14 14 14 13 10 9 8 7 7 8 9 9 8 7 6 6 8 10 12 14 16 18 23 23 20 20 23 23 24 25
14 15 15 14 15 16 19 23 27 29 30 28 28 27 27 27 28 29 29 29 28 28 29 30 29 29 29 29 30 30 31 31 32 32 31 30 28 27 27 28 29 28 22 18 15 14 15 17 16 15 15 16 17 17 17 16 15 15 15 15 12 9 8 6 6 7 7 8 8 8 8 7 8 9 11 13 14 17 21 21 17 18 21 22 21 23
18 20 20 20 19 19 20 23 26 29 31 32 32 31 31 31 31 32 33 32 32 33 33 32 33 33 32 32 32 32 32 33 33 33 32 31 30 29 30 31 29 24 19 17 15 15 16 17 17 16 16 16 17 19 19 19 18 17 17 17 15 13 10 8 6 6 7 7 8 9 9 9 10 10 11 13 14 16 19 18 14 16 20 20 21 22
22 23 23 23 22 22 22 23 26 28 29 31 33 34 34 35 35 36 36 36 37 38 36 36 37 36 36 35 34 34 35 35 36 36 35 33 32 32 32 31 27 22 19 19 18 17 18 17 17 17 17 18 19 20 22 23 22 20 19 18 18 17 16 13 11 8 7 8 8 9 9 10 11 12 13 14 14 15 17 16 14 14 16 18 19 21
24 24 24 23 23 24 24 24 26 28 29 30 31 32 34 36 36 37 38 38 39 40 39 39 39 39 38 38 37 37 38 39 39 38 37 35 34 33 32 30 26 23 22 24 23 22 21 21 20 19 19 20 21 22 23 24 24 23 21 20 21 22 20 18 15 13 11 9 9 9 10 11 12 13 14 15 15 16 17 16 14 13 13 16 17 19
23 23 23 22 22 24 26 27 27 28 29 29 30 31 33 34 36 37 38 38 39 40 40 40 40 41 41 41 40 40 40 40 40 38 37 35 34 33 32 30 28 27 26 27 28 28 27 26 24 23 22 22 23 24 24 25 24 24 22 21 22 22 22 18 15 15 15 13 11 10 11 12 13 13 14 15 16 17 17 18 16 14 13 15 17 18
23 23 22 21 21 22 25 27 28 29 29 29 30 30 31 32 34 36 37 39 40 40 40 40 40 40 41 42 42 41 41 40 39 38 36 35 34 34 34 33 32 32 30 30 30 30 30 28 26 25 24 23 24 25 26 26 26 24 22 22 22 21 20 17 13 12 15 16 14 12 12 12 13 14 14 15 16 17 17 18 18 16 16 16 18 19
22 22 21 20 20 21 22 24 26 27 28 28 29 30 30 30 31 33 34 35 36 37 38 39 39 40 42 43 43 42 42 40 39 38 37 35 34 34 34 34 34 34 33 32 31 31 31 30 28 27 26 24 24 26 27 29 28 26 23 22 22 22 19 17 15 13 15 17 17 15 14 13 14 14 14 15 15 16 17 17 18 18 17 17 18 19
24 24 23 22 21 20 21 22 23 24 25 25 26 26 27 27 28 29 30 31 31 33 33 35 36 38 39 41 42 42 41 40 40 39 38 36 34 33 34 34 34 34 34 33 33 32 32 31 30 29 28 27 25 26 27 29 30 28 25 23 24 24 22 21 20 18 17 18 19 18 16 16 15 16 16 16 16 16 17 18 18 18 18 17 17 18
25 26 25 24 23 23 22 22 23 24 24 25 25 25 26 26 26 27 28 28 29 29 30 31 32 34 37 39 40 40 38 37 37 37 38 37 34 32 31 32 33 33 33 33 33 32 32 32 31 31 31 29 28 27 28 30 31 29 26 25 27 27 25 23 24 24 23 21 20 20 19 18 18 17 17 17 17 17 18 18 19 19 19 18 18 18
24 25 25 24 24 25 25 26 26 26 27 27 27 28 28 28 28 29 29 29 30 30 30 31 32 34 36 35 33 33 31 30 31 32 33 33 32 30 29 30 32 32 32 31 32 33 33 33 33 33 33 32 31 31 31 33 35 33 29 28 29 29 28 27 27 29 29 27 24 23 21 20 19 19 19 19 19 19 19 19 19 20 20 20 20 19
27 27 26 26 27 27 28 29 29 29 29 29 30 30 30 30 30 30 29 30 30 30 30 31 32 34 35 31 28 29 29 29 29 30 30 30 30 31 31 32 33 33 33 33 34 34 35 35 35 35 36 36 35 35 36 36 37 37 34 32 32 32 32 31 31 31 31 30 29 27 25 24 22 21 20 20 20 20 19 19 20 20 20 20 21 20
30 29 29 29 29 30 30 31 31 31 30 29 30 30 30 29 29 29 28 28 28 28 29 30 31 33 35 33 31 30 31 31 31 33 34 33 33 34 34 33 34 35 37 38 38 37 37 37 37 38 39 39 39 38 38 38 38 39 38 35 34 34 34 33 33 31 31 31 31 31 30 29 27 25 23 22 21 21 20 20 21 21 21 20 21 21
31 31 31 31 30 31 31 31 31 30 29 28 29 28 28 28 28 28 27 27 26 27 27 28 29 32 35 36 34 33 34 33 33 35 36 37 36 36 35 35 35 36 36 37 39 40 39 39 39 39 39 39 39 38 38 38 38 40 39 36 36 36 35 34 33 31 30 31 32 33 33 32 30 28 26 24 23 22 22 21 22 22 21 21 21 21
30 30 30 29 29 29 30 30 30 29 28 27 27 27 28 27 27 28 28 27 26 26 27 29 30 31 34 35 36 37 37 37 37 38 39 39 39 39 39 38 37 36 36 37 38 40 40 39 38 38 38 39 38 37 37 37 38 39 39 38 37 37 36 35 35 34 33 33 32 32 34 34 32 29 27 26 25 25 24 23 23 23 22 22 22 22
27 28 28 28 28 28 28 29 29 29 28 28 28 28 28 28 28 29 29 28 28 28 29 30 31 32 34 36 37 38 39 40 41 42 43 43 42 42 43 43 43 41 41 42 42 42 42 41 40 39 37 37 38 37 36 35 37 38 39 38 38 39 38 36 36 36 35 35 34 33 32 32 30 28 27 27 27 28 27 26 25 24 23 23 22 22
26 28 28 29 29 29 29 29 29 29 29 30 30 30 30 31 31 31 31 31 31 31 32 32 33 34 35 36 37 38 39 40 41 42 43 44 45 44 44 45 44 44 43 43 43 43 43 42 41 41 39 38 38 38 35 33 34 35 36 35 36 38 38 36 34 34 35 36 35 34 33 31 29 29 29 29 29 30 30 29 28 26 25 24 23 23
27 28 29 30 31 31 31 30 30 31 31 31 32 33 33 33 34 34 35 34 34 34 34 34 35 35 36 37 38 39 40 41 42 42 43 44 45 46 46 46 45 44 44 43 44 44 44 43 42 42 41 40 40 40 38 35 34 34 34 34 33 35 36 35 34 34 35 35 35 34 33 30 29 31 32 32 32 31 31 30 30 29 27 26 25 24
28 29 30 31 31 32 32 32 32 32 33 33 33 34 35 35 36 37 37 37 37 37 37 37 37 37 38 39 40 41 42 43 44 44 44 44 45 45 46 47 46 46 45 44 44 45 45 45 44 43 42 42 41 40 38 36 36 36 35 34 33 34 36 37 35 33 33 34 33 33 32 29 29 31 32 32 33 33 33 31 30 30 30 30 28 27
29 30 31 32 33 33 33 34 34 34 35 35 36 36 37 37 38 38 39 39 40 40 40 41 41 41 41 41 42 43 44 45 45 46 46 47 47 47 47 48 48 48 48 47 46 46 46 46 45 44 44 43 42 41 38 36 36 37 37 36 35 35 37 38 37 34 33 32 32 32 31 30 30 33 34 33 32 32 33 34 33 32 31 32 31 29
29 30 31 32 34 34 35 36 36 37 37 37 38 38 39 39 40 40 41 41 42 42 42 42 43 43 43 43 43 43 44 45 46 47 47 48 49 49 49 49 49 50 50 49 49 48 47 47 47 46 46 45 44 42 39 36 36 38 39 39 37 36 37 39 38 37 36 34 32 31 32 32 33 35 37 36 33 30 30 34 36 35 33 32 31 30
29 30 30 32 34 34 35 36 37 38 38 38 38 39 39 40 40 41 41 42 42 42 43 42 43 43 44 44 44 45 45 46 46 47 48 48 49 50 51 51 51 51 51 51 50 50 49 48 48 48 47 46 45 43 41 38 37 37 39 40 39 39 39 39 40 39 39 36 34 32 33 34 35 36 37 37 36 32 29 30 34 37 36 34 33 32
30 30 31 32 33 34 35 36 37 37 38 38 39 39 39 39 40 40 40 40 39 39 39 40 40 41 42 42 43 43 44 44 45 45 45 46 47 48 49 50 51 52 52 52 51 51 50 49 49 49 48 48 46 45 43 40 38 38 39 40 40 39 39 40 41 41 41 40 37 35 34 35 35 36 37 37 37 36 33 31 32 34 36 36 36 34
30 31 32 33 33 34 35 36 36 36 37 38 38 38 38 37 37 37 36 36 35 36 36 37 38 38 39 39 40 41 40 41 41 42 42 43 43 44 45 46 48 49 50 51 52 51 51 50 50 50 49 49 47 46 44 42 40 40 40 41 40 39 39 40 41 42 42 41 39 37 36 35 36 36 37 36 37 36 35 34 33 33 34 36 38 37
31 32 32 33 34 34 35 36 36 36 36 36 35 35 35 34 34 34 34 34 35 36 36 37 37 37 38 38 38 38 38 38 38 38 38 38 38 38 39 40 42 43 46 47 49 50 50 50 50 50 50 49 48 47 45 43 41 41 41 42 42 41 40 41 42 42 42 41 40 37 36 36 37 37 36 36 36 36 35 35 34 33 32 34 37 39
31 32 33 34 34 35 35 35 35 34 34 33 33 33 32 33 33 33 34 35 36 36 36 36 36 36 36 37 37 37 36 35 35 34 34 33 33 33 33 34 35 37 39 42 44 46 47 48 49 49 49 49 48 47 46 44 42 41 41 42 43 43 42 41 42 43 43 41 40 38 37 36 38 39 37 35 35 36 36 35 34 33 32 33 35 38
31 32 32 33 33 33 33 33 33 32 32 32 32 32 32 33 33 34 35 35 36 36 36 35 35 35 35 36 36 36 35 33 33 32 32 31 31 32 32 32 33 34 35 37 39 41 42 44 45 46 47 48 48 47 46 45 43 41 41 42 43 43 43 42 43 44 43 42 40 39 37 37 38 39 38 35 35 36 36 35 35 34 33 33 34 36
Wind_Direction
264 262 257 254 254 257 264 269 268 267 270 274 277 288 306 314 294 248 254 284 284 302 313 318 330 355 353 349 349 348 349 350 354 9 13 10 13 14 11 7 1 360 0 4 12 10 356 336 316 302 295 293 292 290 288 287 287 284 278 270 266 265 264 262 260 258 258 258 257 257 258 261 264 264 266 272 277 277 270 261 254 250 244 231 225 221
264 262 256 259 263 265 268 270 269 268 273 279 282 293 305 299 258 230 245 282 292 293 297 309 321 325 329 329 334 341 342 345 350 1 6 2 2 7 3 359 358 357 359 1 6 6 356 340 323 307 294 287 287 286 287 286 287 288 285 280 274 269 267 266 265 261 259 259 258 259 260 261 265 267 266 269 276 276 268 259 252 248 245 235 226 222
266 269 269 272 273 274 275 276 276 276 281 287 289 296 295 267 232 234 253 273 285 289 292 302 311 313 320 323 328 337 337 341 346 354 1 354 349 356 355 354 354 356 5 5 359 356 354 344 330 315 302 292 287 285 286 286 284 283 282 282 280 277 273 269 266 262 258 256 256 258 259 258 259 262 263 264 267 268 264 257 251 248 246 238 230 224
274 277 277 275 273 276 278 278 280 284 289 292 290 288 275 243 222 245 263 265 269 282 293 299 303 309 327 332 334 339 337 336 339 348 355 343 336 347 351 354 354 354 6 8 359 351 350 348 336 326 316 304 296 291 289 289 289 288 288 287 285 283 281 276 270 264 259 254 251 252 253 252 249 249 251 252 253 257 256 252 248 246 244 237 231 225
281 282 283 283 282 282 281 278 280 290 294 286 273 263 253 235 216 231 251 260 266 281 295 299 302 315 332 334 337 341 338 335 340 349 348 331 332 350 357 2 0 354 356 1 0 353 346 345 341 337 333 325 314 308 305 304 303 302 300 297 291 285 278 274 271 266 261 256 251 248 247 246 243 241 241 242 243 247 249 248 247 244 240 236 229 222
278 282 285 290 291 288 282 279 282 286 278 260 246 246 244 231 217 228 244 255 270 287 297 302 311 323 326 327 335 344 344 344 350 353 345 335 345 3 6 7 5 358 352 354 0 357 349 345 343 340 340 341 335 327 323 318 315 312 307 302 297 290 279 270 265 264 261 255 250 248 246 245 244 241 239 238 238 241 244 244 244 242 238 235 227 219
271 271 273 274 277 276 268 267 266 251 240 232 230 238 240 234 226 233 244 256 270 281 296 312 323 330 328 330 342 355 357 358 359 354 351 358 11 15 9 6 5 1 352 352 360 359 353 349 345 339 337 340 340 337 330 323 319 314 308 303 298 292 282 269 259 257 258 255 250 248 249 248 248 247 245 240 236 237 241 242 242 239 235 232 226 217
270 266 264 263 264 265 255 248 244 235 224 222 229 236 239 240 232 236 250 261 271 276 300 323 331 344 347 348 0 7 2 1 356 348 354 15 22 19 13 8 4 359 350 350 355 355 353 349 343 337 333 335 337 335 332 325 319 315 311 308 303 296 286 271 257 250 250 253 252 247 248 249 249 251 250 246 238 234 235 240 242 238 233 228 222 217
267 264 261 260 254 252 248 245 245 238 224 223 231 230 230 235 230 239 253 259 265 268 304 320 327 348 357 2 11 4 353 353 348 342 344 8 24 24 16 7 0 354 349 346 348 352 351 344 338 336 333 333 332 331 330 325 321 318 316 315 315 310 296 278 262 252 246 247 251 246 245 248 247 247 249 249 244 236 232 237 240 238 233 227 219 215
263 258 254 251 245 240 236 237 239 233 226 225 221 210 218 235 228 234 243 239 243 251 287 300 311 337 353 359 5 355 346 348 348 342 338 4 29 26 8 353 343 344 350 345 344 351 351 342 336 340 339 336 332 330 329 326 324 323 323 325 329 323 305 279 256 247 241 240 247 247 245 248 248 246 245 247 246 239 234 236 239 236 232 227 218 213
258 252 249 250 251 252 248 243 236 228 223 212 196 197 203 216 218 216 225 228 221 256 275 276 293 316 339 349 353 351 346 347 347 345 351 16 27 18 358 334 321 332 348 351 351 354 353 346 340 341 344 341 336 331 329 327 327 329 331 336 338 330 313 285 245 234 236 237 244 246 245 246 247 247 244 243 244 239 233 235 238 234 228 226 219 214
251 247 245 248 249 253 259 254 237 216 212 206 209 214 211 219 226 220 226 234 220 230 257 267 287 309 334 346 346 345 345 345 346 354 14 23 18 7 354 334 320 334 352 1 3 355 348 345 343 344 343 339 334 329 327 327 327 332 337 342 344 336 319 294 246 230 233 236 242 246 246 246 246 248 245 242 241 238 233 232 237 233 227 225 221 217
243 239 235 237 236 226 238 248 233 209 211 222 233 236 230 227 226 223 230 237 226 225 243 271 297 312 327 336 336 334 336 336 340 355 16 16 7 358 350 339 332 340 348 352 354 349 341 335 335 340 342 338 332 328 326 326 327 332 339 343 346 343 325 299 270 252 246 245 248 249 246 244 244 248 248 243 239 236 232 230 235 234 228 225 223 221
233 231 227 226 226 216 213 231 234 218 214 223 229 230 223 214 212 221 234 233 230 235 248 281 302 307 314 318 317 319 321 323 329 344 3 7 2 355 346 343 339 335 334 331 332 340 339 330 323 327 337 336 332 329 327 328 328 331 338 343 345 345 333 311 290 277 269 264 261 254 246 241 241 246 248 242 237 234 231 228 232 234 229 226 224 223
226 225 222 219 220 221 222 233 238 232 227 226 223 211 199 201 208 222 245 243 242 253 265 293 304 305 314 312 304 306 309 313 320 332 350 360 359 351 344 344 340 328 325 323 321 331 339 335 326 327 333 331 328 328 327 328 330 331 335 340 343 342 336 322 304 289 277 269 265 259 250 240 238 243 245 240 236 234 231 227 230 234 232 230 227 224
223 225 225 222 219 217 221 229 233 237 235 227 219 205 198 207 216 224 253 262 255 265 280 295 302 307 317 310 298 298 302 308 318 330 344 352 353 347 341 339 336 325 319 322 321 326 336 335 331 331 331 328 325 324 325 328 329 331 333 336 340 338 332 324 315 302 286 271 261 255 248 240 236 239 240 236 234 234 232 229 230 233 233 233 231 228
225 234 238 228 216 211 217 225 228 234 235 226 217 206 206 218 225 227 247 262 266 281 291 295 300 305 309 306 295 293 298 307 320 334 343 348 347 343 337 335 335 327 320 327 330 330 329 324 322 326 328 328 326 320 320 326 330 333 334 335 337 334 326 321 317 311 298 283 269 255 245 236 232 232 232 232 232 231 231 230 231 233 234 234 233 231
227 233 240 231 216 212 218 226 230 229 230 225 216 212 216 228 236 236 243 254 271 284 287 291 296 293 291 289 284 289 300 312 326 336 343 347 344 339 335 333 334 332 329 339 345 341 334 323 320 324 328 331 329 317 311 324 334 338 336 335 334 327 319 318 318 316 309 297 283 263 245 233 225 224 226 228 230 230 229 229 231 233 234 234 234 234
224 223 231 233 225 219 220 228 238 240 238 232 221 219 225 232 239 245 249 255 267 275 277 283 284 276 271 275 281 294 309 319 327 333 339 342 339 334 331 329 329 327 328 339 348 345 340 334 330 329 331 335 334 313 302 324 338 342 339 336 331 322 318 319 319 319 316 309 296 268 243 228 220 220 223 227 231 231 230 228 228 230 232 234 236 237
218 217 222 234 234 230 229 232 239 246 249 245 232 227 230 233 240 251 255 259 265 270 274 279 280 275 271 278 290 304 313 318 322 328 334 337 335 332 330 330 330 324 320 329 340 342 340 338 334 330 331 337 337 308 302 325 337 343 341 337 331 325 324 322 321 319 316 313 305 270 237 226 223 222 223 226 230 233 234 232 229 228 229 231 233 235
211 216 221 238 244 238 239 240 240 246 253 253 245 238 235 237 244 253 260 264 265 266 271 276 279 282 282 287 298 307 312 316 319 324 330 333 333 333 332 333 335 326 317 320 331 336 334 332 331 328 328 336 336 314 308 321 330 338 340 335 330 327 326 323 320 318 314 311 304 273 239 231 229 228 225 226 228 231 234 234 232 229 228 230 232 234
218 222 225 241 252 242 241 243 242 246 252 256 258 252 246 244 248 255 264 269 268 268 270 273 276 280 285 292 298 303 306 309 312 317 324 328 329 330 329 331 333 326 315 313 321 327 324 324 326 325 325 331 333 323 315 317 322 328 332 331 329 327 328 324 319 317 316 310 301 283 253 238 235 233 230 229 229 230 231 232 233 233 232 231 232 234
251 258 244 248 254 244 241 243 243 246 252 257 261 259 256 255 255 258 262 266 269 271 273 274 276 279 284 289 293 296 299 300 303 308 315 320 322 321 321 323 324 320 309 303 311 316 313 315 321 321 320 322 324 321 315 314 316 317 318 323 328 328 329 328 321 317 318 314 302 289 269 249 240 237 233 231 230 231 233 234 234 235 236 234 234 234
282 285 277 265 258 247 242 242 243 248 254 258 260 259 258 259 259 260 259 260 264 268 271 273 276 279 283 286 288 290 293 295 298 301 305 311 314 313 313 315 317 314 301 292 297 301 301 308 316 317 314 312 312 311 309 310 309 306 305 310 320 326 328 330 323 316 313 311 304 291 274 261 247 241 237 235 234 236 238 239 237 236 239 241 241 240
288 283 276 268 260 254 248 245 245 247 251 254 257 260 261 260 260 260 260 261 262 265 269 272 275 279 282 284 285 287 290 292 295 298 301 305 307 306 306 309 313 311 296 285 288 289 289 298 307 310 309 305 304 303 303 304 302 297 294 294 301 312 317 322 319 311 305 301 297 289 276 265 254 248 245 243 242 243 245 245 243 241 243 246 247 247
286 283 278 272 265 259 253 249 248 249 250 251 254 257 260 261 261 261 261 263 265 267 270 273 276 278 280 282 283 286 288 291 294 298 300 302 301 298 299 304 309 308 293 280 281 280 282 291 296 299 302 301 299 297 295 294 291 288 284 282 281 285 291 297 297 295 292 287 282 277 272 263 256 253 252 251 250 250 252 251 247 245 245 244 245 247
283 282 277 273 270 265 256 248 247 249 251 253 253 254 255 257 259 261 261 263 266 268 271 273 276 277 279 280 282 283 286 288 292 295 296 298 296 293 294 298 303 303 289 275 274 273 276 284 288 291 294 295 294 294 292 290 288 285 282 279 279 279 280 280 277 275 276 276 273 269 265 261 257 254 251 250 250 252 256 255 247 242 244 244 242 243
277 276 273 270 270 268 261 252 247 247 250 253 256 256 256 255 256 258 261 264 267 270 272 273 275 276 277 279 280 281 283 284 287 289 291 291 290 290 292 294 295 291 279 270 268 269 271 275 281 284 286 288 290 291 292 293 294 295 296 296 297 297 295 294 291 288 282 278 280 278 271 264 260 257 255 254 253 255 259 260 251 244 246 247 245 244
270 271 270 270 270 268 266 261 255 251 250 251 254 257 258 258 257 257 260 263 267 270 272 273 275 276 276 277 278 278 280 281 283 285 286 286 286 286 286 286 284 278 270 264 264 267 269 271 276 278 277 279 283 285 288 291 295 301 308 314 313 308 303 302 303 304 303 299 295 292 284 275 269 266 265 265 264 264 266 267 263 257 254 253 251 249
271 271 269 268 268 267 265 264 262 260 257 255 254 254 256 257 257 257 259 262 265 268 270 271 273 274 275 276 276 277 278 280 281 282 282 281 281 281 279 277 275 270 263 259 260 263 265 266 269 272 272 273 277 280 284 287 291 298 307 313 312 307 303 304 305 306 306 306 302 296 291 285 281 277 273 271 271 270 271 273 272 268 262 259 258 255
271 272 270 268 268 267 266 265 264 265 265 264 263 262 260 259 258 258 259 261 263 266 267 268 268 269 271 273 274 275 275 276 278 278 278 277 276 275 275 272 271 270 266 260 258 259 260 260 262 265 267 269 274 279 283 285 288 294 300 305 306 305 300 295 294 298 299 299 297 294 290 287 284 281 277 273 273 272 272 273 273 270 265 261 260 260
275 274 274 272 270 269 268 268 267 267 267 267 268 268 268 266 265 264 263 263 264 264 265 265 265 266 267 269 270 271 272 272 273 274 274 273 272 271 271 269 268 267 265 262 260 259 260 260 260 260 260 262 268 277 283 286 288 290 293 298 303 305 299 289 284 284 283 284 286 285 283 282 280 278 276 274 272 271 271 270 270 269 267 265 263 264
283 283 282 281 279 277 273 271 269 269 269 269 270 270 270 270 269 268 268 267 266 266 265 265 265 264 265 266 267 267 268 268 270 271 271 269 267 266 267 266 265 264 262 261 260 260 261 261 260 259 257 257 262 270 276 281 285 286 289 292 296 299 297 291 286 281 274 275 278 277 275 275 275 275 275 274 272 271 270 269 269 269 269 269 268 267
277 278 278 279 280 280 278 276 274 273 274 274 274 274 274 274 273 272 271 270 270 269 267 266 265 264 264 264 263 263 263 262 264 267 268 265 262 262 262 263 264 264 262 260 260 260 261 262 261 259 256 254 257 263 269 273 277 279 281 283 286 289 290 287 283 280 276 273 273 272 271 270 269 269 270 271 272 272 271 270 270 270 270 270 269 269
270 270 272 274 275 276 277 277 278 278 278 279 279 279 278 277 276 274 273 272 271 270 269 268 267 268 267 265 263 265 264 260 261 265 267 263 258 258 260 261 262 262 260 257 257 258 259 260 260 259 257 255 256 260 265 269 272 274 273 274 278 282 283 282 281 280 278 272 268 266 265 264 264 264 264 265 267 269 270 270 270 269 269 269 268 268
271 271 272 273 273 274 275 276 277 278 279 280 280 280 280 279 278 277 275 274 272 271 270 269 269 271 271 267 264 267 268 266 266 268 268 263 260 261 263 262 260 260 260 259 257 256 256 258 259 259 259 259 259 262 266 269 271 272 272 272 274 276 278 280 279 279 278 274 267 262 260 259 258 259 259 260 261 263 266 268 270 269 268 268 267 267
270 271 272 272 273 274 275 276 277 277 278 279 279 279 280 280 279 279 277 276 275 273 272 271 269 271 272 269 267 267 266 265 265 265 265 265 265 268 270 268 265 264 264 262 259 258 259 261 261 261 262 262 263 265 267 269 270 271 271 272 273 274 276 277 276 274 272 269 266 262 259 259 257 256 256 258 259 260 262 264 266 267 268 268 268 267
270 271 272 273 274 275 275 276 277 279 280 280 281 281 281 281 280 279 277 276 275 274 273 270 268 268 269 270 270 270 269 267 266 266 267 268 267 268 269 268 267 266 266 265 263 262 263 264 264 263 264 264 266 266 267 268 269 270 271 272 273 273 273 273 274 272 267 264 264 261 256 256 257 255 255 257 259 261 261 261 262 263 264 265 266 267
272 273 274 275 275 276 277 278 279 280 281 281 281 281 281 280 279 278 276 274 274 272 270 268 267 266 266 267 268 270 270 269 269 268 268 269 269 269 267 267 268 269 270 270 268 266 265 265 265 264 264 264 266 267 267 267 267 268 269 271 271 272 270 269 270 269 265 262 261 258 254 254 257 259 260 261 263 263 262 262 262 262 262 262 262 263
277 278 279 279 279 280 280 281 282 283 284 284 283 282 281 280 278 276 274 273 272 270 268 268 268 268 268 268 268 269 269 270 270 270 270 269 269 267 266 267 270 272 272 271 270 268 267 266 265 265 265 265 266 267 266 266 266 266 267 268 268 270 269 268 267 265 262 260 259 258 255 253 255 262 266 267 268 268 266 264 263 263 264 265 264 263
280 282 283 284 284 283 283 283 284 285 285 285 284 283 282 281 279 278 277 276 274 272 271 271 271 271 272 272 272 272 273 273 273 272 273 273 272 271 270 269 270 272 273 272 271 270 269 268 267 266 265 264 265 266 266 265 265 266 266 266 266 267 269 269 266 262 260 258 258 259 257 252 255 263 264 263 264 267 268 268 267 266 265 265 266 266
283 283 284 285 285 285 285 285 285 285 284 283 283 283 282 282 282 281 281 280 280 278 277 275 275 275 274 274 274 274 274 274 274 273 273 274 275 276 276 275 274 273 273 272 272 271 271 270 269 267 266 264 263 265 266 264 263 265 266 266 266 267 269 269 267 263 260 259 260 262 261 259 264 267 262 256 256 258 260 264 266 266 266 264 263 264
284 283 283 283 283 283 284 284 283 283 281 281 280 280 281 281 282 282 283 284 284 284 284 284 283 281 280 279 278 277 277 276 276 275 274 274 274 274 275 275 275 274 273 272 271 271 271 270 269 267 267 265 264 264 265 264 263 263 264 265 265 268 270 271 269 266 261 259 261 265 266 269 275 274 267 260 256 253 252 254 257 260 262 262 261 261
282 282 283 283 283 283 283 283 282 282 281 280 281 281 282 283 284 285 286 287 288 288 288 288 287 285 284 282 281 280 280 279 278 278 277 276 276 276 275 275 275 275 274 273 272 271 271 270 269 267 266 266 265 264 264 263 263 262 263 263 263 265 268 270 269 267 263 259 259 262 266 270 272 272 271 268 262 258 254 250 250 253 256 257 259 261
281 281 281 281 282 282 282 282 282 282 282 282 282 283 283 284 285 285 286 286 286 286 286 286 286 286 286 285 283 282 280 279 278 277 277 276 276 276 275 275 274 274 274 273 272 272 270 270 269 267 266 265 265 265 263 261 261 261 262 262 262 262 264 266 267 267 266 263 260 260 262 263 263 264 267 267 266 266 261 253 250 251 254 255 257 259
283 283 281 280 280 280 279 279 280 280 280 280 280 280 280 280 281 281 281 282 282 284 285 286 286 286 285 284 283 281 280 278 277 277 276 275 274 274 273 273 273 272 272 272 271 270 270 269 268 267 266 265 264 265 264 262 259 259 260 261 261 260 260 262 264 266 267 267 266 264 263 262 261 262 264 265 264 265 264 258 252 250 252 255 256 255
288 286 284 281 280 279 278 278 278 278 278 278 278 278 279 279 279 279 280 280 281 282 282 282 281 281 281 280 280 279 279 279 278 277 277 275 274 273 272 272 272 272 271 271 270 269 268 267 267 266 266 265 264 264 264 263 260 258 259 260 260 258 258 259 261 263 265 266 267 267 266 264 263 264 266 267 266 265 264 261 256 252 251 252 253 254
291 289 286 284 282 281 279 279 278 278 278 279 279 280 280 281 281 281 282 282 283 282 282 282 283 283 283 283 283 282 282 282 281 280 279 277 275 274 273 272 271 271 270 270 269 268 267 266 265 264 264 264 264 263 264 263 261 258 257 258 259 258 258 258 258 259 262 264 265 266 267 266 266 265 266 267 269 269 266 263 260 257 255 252 250 251
293 290 288 286 285 283 281 281 282 281 282 283 283 283 284 284 285 287 288 288 288 288 289 290 290 290 289 288 288 288 288 288 287 286 284 281 279 277 275 274 274 273 272 270 269 268 266 265 264 263 263 263 263 262 263 263 262 260 257 257 258 258 258 258 258 258 260 262 264 264 265 266 267 267 267 266 268 269 268 266 263 261 259 256 251 248
293 290 289 289 288 287 286 286 287 287 287 287 287 288 288 289 290 291 291 291 291 292 293 293 293 292 292 292 292 293 293 292 291 291 289 287 285 283 281 280 279 278 276 274 272 269 267 265 263 262 262 262 262 261 261 262 262 261 258 256 256 257 257 258 258 259 260 262 263 263 263 264 265 267 267 266 266 266 267 268 267 264 262 260 254 249
294 292 291 290 289 289 289 289 289 289 289 289 290 290 290 290 291 291 292 292 294 295 295 295 294 294 295 295 295 295 295 294 294 295 294 293 291 289 287 285 284 283 281 278 275 272 269 266 264 262 261 261 261 261 260 260 261 261 260 258 256 255 256 257 258 259 261 262 263 263 262 261 262 264 265 264 264 264 264 265 266 265 263 259 253 249
Height
5925 5925 5924 5924 5924 5923 5923 5923 5923 5923 5923 5923 5923 5924 5924 5923 5923 5923 5922 5921 5921 5922 5922 5922 5923 5922 5921 5921 5920 5920 5919 5918 5918 5917 5916 5915 5913 5912 5910 5909 5908 5906 5905 5905 5904 5903 5903 5903 5903 5902 5902 5901 5901 5901 5901 5901 5901 5901 5902 5902 5902 5902 5903 5903 5903 5903 5903 5903 5903 5903 5904 5905 5906 5906 5907 5907 5907 5907 5907 5907 5907 5907 5908 5908 5909 5910
5924 5924 5924 5923 5923 5923 5922 5922 5923 5923 5922 5923 5923 5923 5923 5923 5923 5922 5922 5921 5921 5922 5922 5922 5922 5922 5921 5920 5920 5919 5918 5918 5918 5917 5916 5914 5913 5912 5910 5909 5908 5906 5905 5904 5903 5903 5902 5902 5902 5901 5901 5901 5900 5900 5900 5900 5900 5900 5901 5901 5902 5902 5902 5902 5902 5903 5902 5902 5902 5902 5903 5904 5905 5906 5906 5906 5906 5906 5907 5907 5907 5907 5907 5908 5908 5909
5924 5924 5923 5923 5922 5922 5922 5922 5922 5922 5922 5922 5923 5922 5922 5922 5922 5922 5922 5921 5921 5921 5922 5921 5922 5921 5920 5920 5919 5919 5918 5917 5917 5917 5916 5914 5913 5911 5910 5908 5907 5906 5905 5904 5903 5903 5902 5902 5901 5901 5901 5900 5900 5899 5899 5899 5899 5899 5900 5900 5901 5901 5901 5901 5901 5901 5901 5901 5901 5901 5902 5903 5905 5905 5905 5905 5905 5905 5906 5906 5906 5906 5906 5907 5908 5908
5923 5923 5923 5922 5922 5921 5921 5921 5921 5922 5922 5922 5922 5922 5921 5921 5921 5921 5921 5921 5921 5921 5921 5921 5921 5921 5920 5920 5919 5918 5918 5917 5917 5917 5916 5914 5912 5911 5909 5908 5907 5906 5905 5904 5903 5902 5902 5901 5901 5901 5900 5900 5899 5899 5899 5899 5899 5899 5899 5899 5900 5900 5900 5900 5899 5899 5899 5899 5899 5900 5900 5901 5902 5903 5903 5903 5904 5904 5904 5905 5905 5905 5905 5906 5907 5908
5922 5922 5922 5921 5921 5921 5921 5921 5921 5921 5922 5922 5922 5921 5921 5921 5921 5921 5920 5920 5920 5921 5921 5921 5920 5920 5920 5919 5918 5918 5917 5917 5917 5916 5915 5913 5912 5910 5909 5908 5907 5906 5905 5904 5903 5902 5901 5901 5900 5900 5900 5900 5899 5899 5899 5898 5898 5898 5898 5898 5898 5898 5898 5898 5897 5897 5897 5897 5897 5898 5898 5898 5899 5900 5900 5901 5902 5903 5903 5904 5904 5904 5904 5905 5906 5907
5920 5920 5920 5920 5920 5920 5920 5920 5921 5921 5922 5922 5921 5920 5920 5920 5920 5920 5920 5920 5920 5921 5921 5920 5920 5920 5919 5918 5918 5917 5917 5917 5916 5916 5914 5912 5911 5910 5909 5908 5907 5906 5905 5904 5903 5902 5901 5900 5900 5900 5900 5899 5899 5898 5898 5897 5896 5896 5895 5895 5895 5895 5895 5895 5894 5894 5894 5895 5895 5896 5896 5896 5896 5897 5898 5899 5901 5902 5902 5903 5903 5903 5903 5904 5905 5906
5919 5919 5919 5919 5919 5919 5919 5920 5920 5920 5920 5920 5920 5919 5920 5920 5920 5920 5920 5920 5920 5921 5920 5919 5919 5919 5918 5918 5917 5917 5917 5916 5915 5915 5913 5912 5911 5909 5908 5907 5907 5906 5905 5904 5903 5902 5901 5900 5899 5899 5899 5898 5898 5897 5896 5895 5894 5893 5893 5892 5892 5892 5892 5892 5892 5891 5891 5892 5893 5894 5894 5895 5895 5896 5897 5898 5899 5900 5901 5902 5902 5902 5902 5903 5904 5905
5918 5918 5918 5917 5917 5918 5918 5918 5918 5918 5919 5919 5919 5919 5920 5920 5919 5919 5919 5919 5920 5920 5920 5919 5919 5918 5918 5917 5917 5917 5916 5915 5915 5914 5913 5912 5910 5908 5907 5906 5906 5906 5905 5903 5902 5901 5901 5900 5899 5898 5898 5897 5896 5896 5895 5894 5893 5891 5890 5889 5889 5888 5888 5888 5888 5888 5889 5890 5891 5892 5892 5893 5894 5895 5896 5896 5897 5898 5899 5900 5901 5901 5901 5901 5903 5904
5916 5916 5916 5916 5916 5917 5917 5917 5917 5917 5918 5918 5918 5919 5919 5919 5919 5919 5919 5919 5919 5919 5918 5918 5918 5918 5917 5917 5917 5916 5916 5915 5914 5913 5912 5911 5909 5908 5906 5905 5905 5905 5904 5903 5902 5901 5900 5899 5899 5898 5897 5896 5895 5894 5893 5892 5891 5890 5888 5887 5886 5886 5885 5885 5885 5886 5887 5888 5888 5889 5890 5891 5892 5893 5894 5894 5895 5895 5896 5898 5899 5900 5900 5900 5901 5903
5915 5915 5915 5915 5915 5916 5916 5916 5916 5916 5917 5917 5917 5918 5918 5918 5918 5919 5919 5919 5918 5918 5918 5918 5918 5917 5917 5917 5916 5916 5915 5914 5913 5912 5911 5910 5908 5907 5905 5905 5904 5904 5903 5903 5901 5900 5899 5899 5898 5896 5895 5894 5894 5893 5892 5890 5889 5888 5886 5885 5885 5883 5881 5880 5881 5883 5884 5885 5886 5886 5888 5889 5890 5891 5892 5893 5893 5893 5894 5896 5897 5898 5899 5899 5900 5901
5914 5914 5914 5915 5915 5915 5916 5915 5915 5916 5916 5916 5917 5917 5917 5917 5918 5918 5918 5918 5917 5917 5917 5917 5917 5917 5917 5916 5916 5915 5914 5913 5913 5912 5910 5909 5907 5906 5905 5904 5903 5903 5903 5902 5901 5900 5899 5897 5896 5895 5894 5893 5892 5891 5890 5889 5887 5886 5884 5883 5883 5881 5878 5877 5877 5879 5881 5883 5884 5885 5885 5886 5887 5889 5890 5891 5892 5892 5892 5894 5895 5897 5897 5898 5898 5900
5913 5913 5914 5914 5914 5914 5914 5914 5914 5914 5915 5915 5916 5916 5916 5917 5917 5917 5917 5916 5916 5916 5916 5916 5916 5916 5916 5916 5915 5914 5914 5913 5912 5911 5909 5908 5907 5905 5905 5904 5903 5903 5902 5901 5900 5899 5898 5896 5895 5894 5893 5892 5891 5890 5889 5888 5886 5884 5883 5882 5881 5879 5877 5876 5876 5878 5879 5881 5882 5883 5883 5884 5885 5887 5888 5890 5890 5891 5891 5892 5894 5895 5896 5897 5897 5898
5912 5913 5913 5913 5913 5914 5914 5913 5913 5913 5914 5914 5914 5914 5915 5915 5916 5916 5916 5916 5915 5916 5916 5916 5916 5915 5915 5915 5914 5914 5913 5913 5912 5911 5909 5908 5906 5905 5904 5903 5903 5902 5901 5900 5899 5898 5897 5896 5895 5894 5893 5892 5890 5889 5888 5887 5885 5883 5881 5880 5879 5878 5877 5877 5877 5877 5878 5879 5880 5881 5881 5882 5883 5884 5886 5887 5889 5889 5890 5891 5892 5894 5895 5895 5896 5897
5912 5912 5912 5913 5913 5913 5913 5912 5912 5912 5912 5912 5913 5913 5914 5914 5915 5915 5915 5915 5915 5915 5915 5915 5915 5915 5914 5914 5914 5913 5913 5912 5911 5910 5909 5907 5906 5905 5904 5903 5903 5902 5900 5899 5898 5897 5896 5895 5894 5893 5892 5891 5890 5888 5887 5886 5884 5882 5880 5878 5877 5877 5876 5876 5876 5876 5877 5878 5879 5879 5879 5880 5880 5882 5883 5885 5886 5888 5888 5889 5891 5892 5893 5894 5895 5896
5911 5912 5912 5912 5912 5912 5912 5912 5911 5911 5911 5911 5912 5912 5913 5913 5914 5914 5914 5914 5915 5914 5914 5914 5914 5914 5914 5913 5913 5913 5912 5911 5910 5910 5909 5907 5906 5905 5904 5903 5902 5901 5899 5898 5897 5896 5895 5894 5894 5893 5892 5890 5889 5888 5887 5885 5884 5881 5879 5878 5876 5876 5875 5875 5874 5875 5875 5876 5877 5877 5877 5878 5878 5879 5881 5883 5884 5886 5886 5887 5889 5891 5892 5893 5894 5895
5910 5911 5911 5912 5912 5912 5912 5912 5911 5911 5911 5911 5911 5912 5912 5912 5912 5913 5913 5913 5913 5913 5913 5913 5913 5913 5912 5912 5912 5912 5911 5910 5910 5909 5908 5907 5906 5905 5904 5903 5902 5900 5899 5898 5896 5895 5894 5894 5893 5892 5891 5889 5888 5887 5886 5884 5882 5880 5879 5877 5875 5875 5874 5873 5873 5873 5873 5874 5874 5874 5875 5875 5876 5877 5879 5880 5882 5883 5884 5885 5887 5889 5890 5891 5892 5893
5910 5910 5911 5911 5911 5911 5911 5911 5910 5910 5910 5910 5911 5911 5911 5910 5911 5912 5912 5912 5912 5912 5912 5912 5912 5911 5911 5911 5911 5910 5910 5909 5909 5908 5907 5907 5906 5904 5904 5903 5901 5899 5898 5897 5896 5895 5894 5893 5892 5891 5889 5888 5887 5886 5885 5883 5881 5879 5878 5876 5875 5873 5872 5872 5871 5871 5871 5871 5871 5871 5872 5873 5874 5875 5876 5878 5879 5881 5882 5883 5885 5887 5888 5889 5890 5891
5909 5910 5910 5910 5910 5910 5910 5910 5910 5910 5909 5909 5910 5909 5909 5910 5910 5911 5911 5910 5910 5910 5910 5910 5910 5910 5910 5910 5909 5909 5909 5909 5908 5907 5906 5906 5905 5904 5903 5901 5900 5898 5898 5897 5896 5895 5894 5892 5891 5890 5888 5886 5885 5884 5883 5882 5880 5878 5877 5876 5874 5872 5870 5870 5870 5869 5869 5869 5868 5868 5869 5870 5871 5872 5874 5875 5877 5878 5879 5880 5882 5884 5886 5887 5889 5890
5908 5909 5909 5909 5909 5909 5909 5909 5909 5909 5909 5909 5909 5908 5909 5910 5909 5909 5909 5909 5909 5909 5909 5909 5909 5909 5909 5909 5908 5908 5908 5908 5907 5906 5906 5905 5904 5903 5902 5900 5899 5898 5897 5897 5896 5894 5893 5891 5890 5889 5887 5884 5883 5882 5882 5881 5879 5877 5876 5875 5873 5871 5870 5870 5869 5868 5868 5867 5866 5866 5866 5868 5869 5870 5872 5873 5875 5876 5877 5878 5879 5881 5883 5885 5887 5889
5906 5907 5908 5908 5908 5908 5908 5908 5908 5908 5908 5908 5908 5908 5909 5909 5908 5908 5908 5908 5908 5908 5908 5907 5908 5908 5908 5907 5907 5907 5907 5907 5906 5906 5905 5904 5903 5902 5900 5899 5898 5897 5896 5895 5895 5893 5891 5890 5888 5887 5885 5883 5882 5881 5881 5880 5878 5877 5875 5874 5872 5870 5870 5869 5868 5868 5867 5866 5865 5865 5865 5866 5867 5869 5870 5872 5873 5874 5875 5876 5877 5878 5880 5882 5885 5886
5905 5906 5907 5907 5907 5907 5907 5907 5907 5907 5907 5907 5907 5908 5908 5907 5907 5907 5907 5907 5907 5907 5906 5906 5906 5906 5906 5906 5906 5906 5906 5905 5905 5905 5904 5903 5902 5900 5899 5898 5897 5896 5895 5894 5893 5892 5890 5888 5887 5885 5884 5882 5881 5880 5880 5879 5877 5876 5875 5874 5872 5871 5869 5868 5868 5867 5867 5865 5865 5864 5865 5865 5866 5867 5868 5870 5871 5872 5873 5874 5874 5875 5878 5881 5882 5883
5905 5905 5906 5906 5906 5905 5905 5905 5905 5905 5905 5906 5906 5906 5906 5906 5906 5906 5905 5905 5905 5905 5905 5904 5905 5905 5905 5905 5905 5905 5904 5904 5903 5903 5903 5902 5901 5899 5898 5897 5896 5895 5894 5893 5892 5891 5889 5887 5885 5884 5882 5881 5880 5879 5878 5877 5876 5875 5874 5873 5872 5870 5869 5868 5867 5866 5866 5865 5864 5864 5864 5864 5865 5866 5867 5868 5868 5870 5870 5870 5872 5876 5879 5879 5879 5879
5903 5904 5904 5904 5904 5903 5903 5903 5904 5903 5904 5904 5905 5905 5905 5905 5904 5904 5904 5903 5903 5903 5903 5903 5903 5904 5904 5903 5903 5903 5903 5902 5901 5902 5902 5901 5900 5898 5896 5895 5894 5894 5892 5891 5890 5889 5887 5885 5884 5882 5881 5879 5878 5877 5877 5876 5874 5873 5872 5871 5870 5869 5868 5867 5866 5866 5865 5864 5864 5863 5863 5863 5864 5865 5866 5866 5867 5867 5866 5867 5871 5875 5876 5875 5875 5877
5902 5902 5902 5903 5902 5902 5901 5901 5902 5902 5902 5903 5903 5903 5903 5903 5903 5903 5902 5901 5902 5902 5901 5901 5901 5901 5901 5902 5901 5901 5900 5900 5899 5899 5899 5899 5898 5897 5895 5894 5893 5892 5891 5890 5889 5888 5885 5884 5882 5881 5879 5878 5877 5876 5875 5874 5873 5871 5871 5870 5868 5867 5866 5865 5865 5865 5864 5864 5863 5863 5863 5863 5863 5863 5864 5864 5865 5865 5863 5865 5870 5873 5872 5873 5874 5876
5901 5901 5901 5901 5901 5900 5900 5899 5899 5899 5900 5900 5900 5900 5900 5900 5900 5900 5900 5899 5900 5900 5899 5899 5899 5899 5899 5899 5899 5899 5898 5897 5897 5897 5897 5897 5896 5895 5894 5892 5891 5891 5889 5888 5887 5886 5884 5882 5881 5879 5878 5876 5875 5874 5873 5872 5871 5869 5868 5867 5866 5865 5864 5864 5863 5863 5863 5863 5863 5862 5862 5862 5862 5862 5863 5863 5864 5863 5861 5863 5869 5871 5870 5872 5874 5875
5899 5898 5898 5899 5899 5899 5898 5898 5897 5897 5897 5898 5898 5898 5898 5898 5898 5898 5897 5897 5897 5897 5896 5896 5896 5896 5896 5896 5896 5896 5895 5895 5894 5894 5894 5894 5894 5893 5892 5891 5890 5888 5887 5886 5886 5885 5883 5881 5879 5878 5877 5875 5874 5872 5871 5870 5868 5867 5866 5864 5863 5862 5861 5861 5861 5861 5862 5862 5862 5862 5861 5861 5861 5861 5861 5861 5862 5861 5858 5860 5867 5868 5868 5869 5871 5872
5896 5896 5895 5896 5896 5896 5896 5895 5895 5894 5894 5895 5895 5895 5895 5895 5895 5894 5894 5894 5894 5894 5894 5894 5893 5893 5894 5893 5893 5893 5892 5892 5891 5891 5892 5891 5891 5890 5889 5889 5888 5886 5885 5884 5883 5883 5881 5880 5878 5877 5876 5875 5873 5872 5870 5868 5867 5866 5865 5864 5863 5862 5861 5860 5860 5859 5860 5860 5860 5860 5860 5860 5860 5860 5860 5860 5860 5859 5855 5858 5864 5865 5864 5866 5868 5868
5893 5892 5892 5892 5892 5892 5892 5892 5892 5892 5892 5892 5892 5892 5892 5892 5892 5891 5891 5891 5891 5890 5891 5891 5890 5890 5890 5890 5890 5889 5888 5888 5888 5888 5888 5888 5888 5887 5886 5886 5885 5884 5883 5882 5881 5880 5879 5878 5877 5876 5875 5873 5872 5871 5869 5868 5867 5866 5866 5867 5867 5866 5865 5863 5862 5861 5860 5859 5859 5860 5860 5860 5859 5859 5859 5858 5858 5857 5855 5855 5860 5862 5863 5864 5865 5866
5890 5890 5889 5889 5889 5889 5889 5889 5889 5889 5889 5889 5889 5889 5888 5888 5889 5888 5888 5888 5887 5887 5888 5888 5887 5887 5887 5886 5886 5885 5884 5884 5883 5884 5884 5884 5883 5883 5882 5882 5882 5881 5880 5879 5878 5878 5877 5876 5875 5874 5872 5871 5870 5869 5868 5867 5866 5867 5867 5868 5868 5867 5867 5867 5865 5864 5862 5860 5860 5860 5860 5859 5859 5859 5859 5858 5857 5857 5855 5855 5857 5861 5862 5862 5862 5863
5887 5887 5886 5886 5886 5886 5885 5885 5885 5885 5885 5886 5886 5886 5886 5885 5886 5885 5885 5884 5884 5883 5884 5884 5884 5883 5882 5881 5881 5880 5880 5879 5879 5879 5879 5879 5879 5879 5878 5878 5877 5877 5877 5875 5874 5874 5874 5874 5873 5872 5870 5869 5868 5867 5866 5865 5865 5866 5866 5866 5866 5865 5866 5867 5866 5864 5863 5862 5860 5860 5859 5859 5859 5859 5858 5858 5857 5856 5856 5855 5856 5859 5861 5861 5861 5861
5884 5883 5883 5884 5884 5883 5882 5882 5882 5882 5882 5882 5882 5882 5882 5882 5882 5882 5881 5881 5881 5880 5880 5880 5880 5879 5878 5877 5876 5876 5875 5875 5875 5875 5875 5875 5875 5875 5874 5874 5873 5872 5872 5872 5871 5870 5870 5870 5870 5870 5868 5867 5866 5865 5864 5863 5864 5864 5864 5864 5864 5863 5864 5864 5863 5862 5862 5861 5860 5858 5858 5857 5857 5857 5857 5857 5857 5856 5855 5855 5855 5856 5858 5859 5859 5859
5880 5880 5880 5881 5881 5881 5880 5879 5879 5878 5878 5878 5878 5878 5878 5878 5878 5878 5877 5877 5877 5877 5877 5877 5876 5875 5874 5873 5872 5872 5871 5871 5871 5871 5871 5871 5871 5871 5870 5869 5868 5868 5868 5868 5867 5867 5866 5867 5867 5867 5866 5865 5864 5863 5862 5861 5861 5862 5863 5863 5863 5863 5862 5861 5860 5858 5858 5859 5858 5857 5856 5855 5855 5855 5855 5855 5855 5854 5854 5853 5853 5853 5854 5856 5857 5857
5877 5877 5877 5878 5878 5878 5878 5877 5876 5876 5876 5875 5875 5875 5875 5875 5875 5874 5874 5873 5873 5873 5873 5872 5871 5870 5869 5868 5868 5868 5867 5867 5867 5866 5866 5865 5865 5866 5865 5865 5864 5864 5864 5864 5864 5864 5864 5864 5864 5864 5863 5862 5862 5861 5859 5858 5858 5859 5861 5861 5861 5860 5860 5860 5858 5857 5855 5855 5855 5855 5854 5853 5853 5852 5852 5852 5852 5852 5852 5851 5851 5851 5851 5852 5853 5854
5875 5875 5874 5875 5875 5875 5874 5874 5874 5873 5873 5873 5872 5872 5872 5871 5871 5871 5870 5870 5869 5869 5869 5868 5867 5865 5863 5862 5863 5862 5861 5860 5860 5860 5859 5859 5859 5859 5859 5859 5860 5860 5860 5860 5860 5861 5861 5861 5861 5861 5860 5860 5859 5857 5855 5854 5853 5855 5857 5858 5857 5857 5857 5857 5856 5855 5854 5853 5852 5852 5851 5851 5850 5850 5850 5850 5849 5849 5849 5849 5849 5849 5849 5849 5849 5850
5872 5872 5872 5872 5872 5871 5871 5870 5870 5870 5869 5869 5869 5868 5868 5868 5867 5867 5866 5866 5865 5865 5864 5864 5862 5860 5858 5858 5859 5860 5859 5858 5856 5855 5855 5856 5855 5853 5853 5854 5855 5855 5856 5855 5855 5856 5856 5857 5857 5857 5857 5857 5856 5854 5852 5851 5849 5850 5853 5855 5854 5854 5854 5853 5852 5851 5851 5850 5849 5848 5848 5847 5847 5847 5847 5847 5847 5847 5847 5847 5847 5847 5847 5847 5847 5847
5868 5868 5869 5869 5868 5868 5867 5867 5866 5866 5866 5865 5865 5864 5863 5863 5863 5862 5862 5861 5861 5860 5860 5859 5857 5855 5854 5855 5857 5858 5858 5857 5855 5852 5852 5853 5852 5850 5849 5849 5849 5850 5850 5850 5850 5850 5851 5851 5851 5851 5851 5852 5853 5853 5851 5849 5847 5846 5848 5851 5851 5851 5850 5850 5849 5848 5847 5847 5846 5845 5845 5844 5843 5843 5843 5843 5843 5844 5844 5844 5844 5844 5844 5845 5845 5845
5865 5865 5865 5865 5865 5864 5864 5863 5862 5862 5862 5861 5860 5859 5859 5858 5858 5858 5857 5857 5856 5856 5856 5855 5853 5852 5850 5850 5853 5854 5853 5852 5850 5849 5849 5849 5848 5846 5845 5844 5845 5845 5845 5845 5845 5846 5846 5846 5846 5846 5846 5847 5848 5849 5848 5846 5844 5842 5843 5846 5847 5847 5847 5846 5845 5844 5843 5843 5842 5842 5842 5841 5840 5840 5840 5840 5840 5841 5841 5841 5841 5841 5842 5842 5842 5842
5861 5861 5861 5861 5861 5860 5859 5859 5858 5858 5858 5857 5856 5855 5855 5854 5854 5853 5853 5853 5853 5852 5852 5851 5850 5848 5846 5845 5846 5847 5847 5846 5845 5844 5844 5843 5843 5842 5840 5840 5840 5840 5839 5839 5839 5840 5841 5842 5842 5842 5842 5841 5843 5844 5844 5843 5841 5838 5838 5841 5842 5841 5842 5841 5840 5840 5839 5838 5838 5838 5838 5837 5838 5838 5838 5838 5838 5838 5838 5838 5838 5838 5838 5838 5838 5839
5857 5857 5857 5857 5857 5856 5855 5855 5854 5854 5854 5853 5852 5851 5851 5850 5850 5849 5849 5849 5849 5848 5847 5846 5846 5845 5843 5842 5841 5840 5840 5840 5839 5838 5838 5838 5838 5837 5837 5836 5835 5833 5833 5833 5833 5834 5835 5836 5836 5837 5837 5836 5836 5838 5839 5839 5837 5835 5834 5835 5836 5835 5835 5836 5835 5835 5835 5834 5834 5833 5833 5835 5836 5837 5837 5838 5838 5837 5836 5836 5836 5836 5836 5836 5836 5836
5854 5853 5853 5853 5853 5852 5852 5851 5850 5850 5850 5849 5848 5847 5847 5846 5846 5845 5845 5845 5845 5844 5843 5842 5841 5840 5839 5838 5837 5836 5835 5835 5834 5833 5833 5833 5833 5833 5833 5832 5830 5829 5828 5828 5828 5829 5829 5830 5830 5831 5832 5832 5831 5832 5834 5834 5833 5831 5830 5830 5830 5829 5829 5830 5831 5831 5831 5830 5829 5829 5830 5832 5835 5837 5837 5837 5837 5836 5836 5835 5835 5835 5835 5835 5835 5835
5850 5850 5849 5849 5848 5848 5848 5847 5847 5846 5845 5845 5844 5843 5842 5842 5841 5840 5840 5840 5840 5839 5839 5838 5837 5836 5835 5834 5834 5832 5831 5830 5830 5828 5827 5826 5825 5825 5825 5825 5825 5824 5823 5822 5822 5822 5822 5823 5823 5824 5825 5826 5825 5825 5828 5830 5829 5827 5826 5825 5825 5824 5823 5825 5826 5826 5826 5825 5825 5825 5827 5830 5833 5834 5834 5833 5833 5833 5833 5834 5834 5834 5834 5834 5833 5833
5847 5847 5846 5845 5844 5844 5843 5843 5843 5842 5842 5841 5840 5838 5838 5837 5836 5835 5834 5834 5834 5833 5833 5833 5832 5832 5831 5830 5829 5828 5827 5826 5825 5824 5822 5820 5819 5817 5816 5816 5816 5816 5816 5815 5815 5815 5815 5815 5816 5817 5817 5819 5819 5819 5821 5824 5823 5822 5821 5821 5820 5819 5819 5819 5820 5820 5820 5820 5821 5822 5824 5828 5830 5830 5828 5828 5828 5828 5829 5830 5831 5831 5831 5831 5831 5830
5844 5843 5842 5841 5841 5840 5840 5839 5839 5838 5837 5837 5836 5835 5834 5833 5832 5830 5830 5829 5828 5827 5827 5827 5827 5826 5825 5824 5823 5822 5821 5820 5819 5818 5817 5816 5814 5812 5810 5809 5808 5808 5808 5808 5808 5808 5808 5808 5809 5810 5810 5811 5812 5813 5815 5817 5817 5816 5815 5816 5816 5815 5814 5813 5813 5814 5814 5815 5817 5819 5821 5824 5825 5823 5822 5823 5822 5822 5823 5824 5825 5826 5826 5826 5826 5826
5841 5840 5839 5837 5837 5836 5835 5834 5834 5833 5832 5831 5831 5830 5829 5828 5827 5826 5825 5824 5823 5822 5822 5821 5820 5820 5819 5818 5817 5816 5815 5813 5812 5811 5810 5809 5808 5807 5805 5804 5802 5801 5801 5801 5800 5800 5801 5801 5801 5802 5803 5804 5804 5806 5808 5810 5810 5809 5809 5809 5810 5811 5809 5808 5808 5808 5809 5810 5813 5815 5816 5818 5818 5816 5816 5816 5816 5818 5819 5819 5819 5819 5820 5820 5821 5822
5838 5837 5836 5834 5833 5832 5831 5830 5829 5828 5827 5826 5826 5825 5824 5823 5822 5821 5820 5819 5818 5817 5816 5815 5814 5813 5812 5811 5811 5810 5808 5807 5806 5804 5803 5803 5801 5800 5799 5798 5796 5795 5794 5794 5793 5793 5793 5794 5794 5794 5795 5796 5797 5799 5801 5803 5804 5803 5802 5802 5804 5805 5804 5803 5802 5803 5803 5805 5808 5810 5811 5811 5811 5810 5809 5810 5811 5813 5814 5814 5814 5815 5815 5816 5816 5817
5834 5833 5833 5831 5830 5829 5827 5826 5825 5824 5823 5822 5822 5821 5820 5819 5818 5818 5817 5815 5814 5813 5812 5811 5809 5808 5806 5805 5804 5803 5801 5800 5799 5798 5797 5796 5795 5793 5792 5791 5789 5788 5787 5787 5786 5786 5786 5787 5787 5787 5788 5789 5790 5792 5794 5796 5798 5797 5796 5796 5797 5798 5798 5798 5797 5797 5798 5800 5803 5805 5805 5805 5805 5805 5804 5804 5806 5808 5809 5809 5809 5810 5811 5811 5811 5812
5829 5829 5828 5827 5825 5825 5823 5822 5821 5820 5819 5818 5818 5817 5816 5815 5814 5814 5813 5811 5810 5809 5808 5807 5805 5803 5801 5799 5798 5796 5795 5794 5792 5791 5790 5789 5788 5786 5785 5784 5782 5781 5780 5780 5779 5779 5779 5779 5780 5780 5781 5782 5783 5785 5786 5789 5790 5791 5790 5790 5790 5791 5792 5792 5792 5792 5792 5794 5797 5799 5800 5800 5800 5800 5800 5800 5801 5803 5804 5804 5804 5804 5805 5806 5806 5807
5825 5824 5823 5821 5820 5819 5818 5817 5817 5816 5815 5814 5813 5812 5811 5811 5810 5809 5808 5807 5806 5804 5803 5801 5799 5797 5795 5793 5791 5790 5789 5787 5786 5785 5783 5782 5781 5779 5778 5777 5776 5775 5773 5772 5772 5771 5772 5772 5772 5773 5773 5775 5776 5778 5779 5781 5783 5784 5784 5783 5783 5785 5786 5786 5786 5786 5786 5788 5790 5793 5794 5794 5795 5795 5795 5795 5795 5797 5798 5798 5798 5799 5800 5800 5800 5801
5820 5819 5817 5816 5815 5814 5813 5812 5812 5811 5810 5809 5808 5807 5806 5805 5804 5803 5802 5800 5799 5797 5796 5794 5792 5790 5788 5787 5785 5783 5782 5781 5779 5778 5776 5775 5774 5773 5772 5771 5770 5768 5767 5766 5765 5764 5764 5764 5765 5765 5766 5767 5769 5770 5772 5774 5775 5776 5777 5777 5777 5778 5780 5780 5780 5780 5780 5781 5784 5786 5788 5789 5789 5788 5790 5791 5790 5790 5791 5792 5793 5794 5795 5794 5794 5794
5815 5814 5812 5811 5810 5809 5808 5807 5806 5806 5805 5804 5803 5802 5801 5800 5799 5797 5796 5794 5793 5791 5790 5788 5786 5784 5782 5780 5778 5777 5776 5775 5773 5772 5770 5769 5768 5767 5766 5765 5764 5762 5761 5759 5758 5757 5757 5757 5757 5758 5759 5760 5761 5763 5765 5766 5767 5768 5769 5770 5770 5772 5773 5774 5774 5773 5774 5775 5777 5780 5782 5784 5783 5782 5784 5785 5785 5785 5785 5786 5787 5788 5789 5789 5788 5788
5811 5810 5808 5807 5806 5805 5804 5803 5802 5801 5800 5799 5798 5797 5796 5795 5794 5792 5791 5789 5787 5786 5784 5783 5781 5779 5777 5774 5772 5771 5770 5769 5768 5766 5765 5764 5762 5761 5760 5759 5758 5757 5755 5753 5752 5751 5750 5750 5750 5751 5752 5753 5754 5756 5757 5759 5760 5761 5762 5762 5763 5765 5766 5767 5767 5767 5768 5770 5772 5773 5775 5777 5777 5777 5778 5779 5780 5779 5780 5781 5781 5782 5783 5783 5782 5782